Total_Precipitation_Accumulation
1.11 1.23 1.27 1.25 1.28 1.29 1.23 1.17 1.15 1.12 1.13 1.21 1.26 1.44 1.62 1.81 2.01 2.18 2.20 2.17 2.17 2.14 2.06 2.17 2.32 2.35 2.45 2.49 2.50 2.39 2.24 2.19 2.12 1.93 1.71 1.61 1.79 1.81 1.70 1.60 1.47 1.43 1.43
1.09 1.14 1.22 1.19 1.17 1.22 1.18 1.23 1.14 1.05 1.04 1.07 1.21 1.41 1.54 1.62 1.67 1.77 1.85 1.89 1.93 1.99 1.95 1.92 1.99 2.06 2.19 2.34 2.43 2.40 2.40 2.28 2.21 2.22 2.02 1.78 1.70 1.75 1.78 1.84 1.73 1.50 1.45
1.17 1.28 1.26 1.19 1.18 1.23 1.16 1.23 1.16 1.08 1.06 1.05 1.15 1.29 1.34 1.42 1.48 1.52 1.63 1.73 1.76 1.73 1.76 1.67 1.66 1.75 1.89 2.02 2.09 2.18 2.32 2.36 2.38 2.36 2.28 2.08 1.83 1.81 1.88 1.89 1.89 1.94 1.68
1.42 1.43 1.34 1.27 1.18 1.14 1.10 1.12 1.11 1.09 1.08 1.10 1.23 1.28 1.30 1.29 1.42 1.47 1.52 1.51 1.46 1.39 1.42 1.39 1.40 1.43 1.53 1.68 1.81 2.02 2.21 2.33 2.41 2.42 2.37 2.15 1.97 1.90 1.87 1.91 2.00 2.05 2.02
1.42 1.36 1.33 1.23 1.09 1.03 1.03 0.98 1.04 1.10 1.09 1.15 1.22 1.30 1.35 1.34 1.37 1.44 1.39 1.29 1.25 1.22 1.17 1.05 1.06 1.14 1.18 1.27 1.29 1.57 1.84 2.07 2.20 2.26 2.25 2.11 1.90 1.81 1.68 1.71 1.86 2.04 2.09
1.34 1.29 1.18 1.06 1.03 0.98 0.92 0.89 0.93 0.96 1.00 1.04 1.10 1.26 1.38 1.27 1.40 1.37 1.22 1.09 1.04 1.07 1.02 0.93 0.92 0.96 0.90 0.89 0.92 1.15 1.46 1.64 1.81 2.00 2.06 1.94 1.78 1.71 1.76 1.74 1.74 1.80 1.83
1.14 1.10 0.98 0.90 0.87 0.83 0.79 0.83 0.88 0.89 0.93 0.97 0.97 1.10 1.19 1.28 1.27 1.10 1.11 1.04 1.03 1.02 1.03 1.03 0.94 0.89 0.99 0.88 0.83 0.92 1.01 1.13 1.30 1.57 1.79 1.77 1.87 1.79 1.70 1.62 1.63 1.67 1.66
1.02 1.00 0.93 0.84 0.78 0.75 0.70 0.75 0.87 0.87 0.84 0.87 0.88 0.87 0.94 1.10 1.10 0.96 1.00 0.95 1.05 1.09 1.09 1.16 1.16 1.08 1.06 1.13 1.06 1.06 1.01 0.95 1.06 0.98 1.18 1.57 1.72 1.80 1.77 1.80 1.89 1.82 1.66
0.76 0.79 0.76 0.69 0.71 0.76 0.71 0.77 0.83 0.81 0.82 0.79 0.83 0.83 0.86 0.93 0.95 0.88 0.90 0.93 1.06 1.07 1.01 1.11 1.15 1.08 1.16 1.25 1.32 1.36 1.28 1.11 1.24 1.24 1.14 1.27 1.45 1.52 1.65 1.74 1.80 1.72 1.65
0.50 0.53 0.59 0.58 0.61 0.68 0.76 0.83 0.81 0.77 0.81 0.80 0.76 0.74 0.74 0.76 0.85 0.78 0.88 0.95 1.01 1.04 1.05 1.09 1.25 1.17 1.15 1.12 1.17 1.29 1.26 1.11 1.00 1.04 1.01 0.91 0.85 0.98 1.20 1.35 1.63 1.76 1.70
0.42 0.43 0.46 0.48 0.53 0.64 0.70 0.66 0.64 0.67 0.73 0.74 0.76 0.70 0.68 0.74 0.86 0.87 0.94 0.94 0.99 1.06 1.17 1.19 1.16 1.27 1.11 1.06 1.06 1.04 1.13 1.13 1.10 1.15 1.21 1.09 0.97 0.91 0.96 1.04 1.27 1.52 1.67
0.36 0.39 0.39 0.37 0.38 0.43 0.50 0.55 0.55 0.56 0.58 0.58 0.60 0.58 0.60 0.70 0.77 0.78 0.82 0.87 0.96 0.96 1.02 1.02 0.99 1.10 0.96 0.88 0.82 0.88 0.97 1.05 1.12 1.23 1.20 1.14 1.11 1.04 1.02 1.05 1.12 1.25 1.35
0.36 0.38 0.37 0.36 0.36 0.37 0.42 0.47 0.52 0.56 0.57 0.54 0.50 0.49 0.54 0.59 0.67 0.70 0.69 0.69 0.73 0.74 0.71 0.83 0.88 0.88 0.83 0.76 0.80 0.84 0.87 0.89 1.00 1.08 1.08 1.02 1.01 1.07 1.10 1.10 1.13 1.17 1.16
0.32 0.35 0.36 0.38 0.39 0.38 0.41 0.46 0.53 0.53 0.48 0.45 0.47 0.49 0.53 0.56 0.58 0.59 0.62 0.62 0.61 0.65 0.64 0.69 0.74 0.73 0.73 0.74 0.78 0.82 0.85 0.88 0.93 0.95 0.94 0.97 0.99 1.07 1.14 1.12 1.13 1.20 1.26
0.30 0.31 0.32 0.36 0.40 0.39 0.36 0.37 0.44 0.46 0.44 0.45 0.47 0.51 0.55 0.56 0.54 0.55 0.53 0.58 0.63 0.69 0.74 0.69 0.67 0.68 0.68 0.75 0.79 0.79 0.83 0.88 0.88 0.86 0.89 0.92 0.93 0.98 1.03 1.03 1.06 1.11 1.15
0.32 0.31 0.32 0.35 0.40 0.41 0.38 0.37 0.40 0.40 0.44 0.44 0.41 0.41 0.38 0.39 0.44 0.44 0.45 0.50 0.59 0.65 0.76 0.80 0.83 0.89 0.91 0.89 0.86 0.78 0.75 0.77 0.84 0.90 0.92 0.92 0.93 0.92 0.95 0.99 1.03 1.12 1.14
0.40 0.37 0.36 0.36 0.37 0.39 0.41 0.42 0.42 0.38 0.34 0.33 0.34 0.32 0.33 0.36 0.38 0.40 0.41 0.46 0.51 0.57 0.72 0.87 0.90 0.89 0.85 0.83 0.78 0.72 0.66 0.65 0.69 0.80 0.91 0.99 1.00 0.99 1.02 1.06 1.07 1.04 1.03
0.53 0.53 0.46 0.42 0.41 0.39 0.42 0.46 0.49 0.51 0.44 0.34 0.32 0.33 0.33 0.34 0.35 0.39 0.48 0.55 0.51 0.54 0.68 0.78 0.80 0.79 0.73 0.68 0.62 0.57 0.57 0.56 0.57 0.63 0.68 0.77 0.93 1.04 1.11 1.14 1.17 1.20 1.18
0.51 0.55 0.54 0.53 0.50 0.48 0.48 0.54 0.55 0.50 0.43 0.40 0.36 0.34 0.34 0.36 0.37 0.39 0.43 0.46 0.45 0.46 0.50 0.52 0.53 0.55 0.55 0.53 0.51 0.53 0.57 0.57 0.58 0.60 0.60 0.64 0.75 0.90 1.07 1.16 1.21 1.29 1.27
0.37 0.44 0.51 0.56 0.56 0.54 0.55 0.56 0.55 0.52 0.44 0.40 0.38 0.35 0.36 0.35 0.34 0.35 0.36 0.39 0.45 0.47 0.45 0.44 0.45 0.46 0.46 0.47 0.49 0.53 0.58 0.61 0.59 0.60 0.66 0.71 0.80 0.86 0.90 1.01 1.16 1.22 1.16
0.30 0.33 0.38 0.44 0.49 0.49 0.51 0.53 0.55 0.55 0.50 0.46 0.43 0.40 0.40 0.40 0.40 0.37 0.36 0.38 0.41 0.44 0.44 0.45 0.47 0.47 0.47 0.52 0.53 0.54 0.57 0.61 0.62 0.62 0.64 0.71 0.80 0.89 0.95 0.97 1.00 1.04 1.10
0.30 0.31 0.33 0.36 0.40 0.44 0.46 0.47 0.52 0.54 0.53 0.51 0.50 0.49 0.49 0.44 0.44 0.44 0.44 0.45 0.48 0.48 0.49 0.53 0.56 0.53 0.51 0.54 0.59 0.61 0.62 0.61 0.61 0.64 0.70 0.74 0.78 0.84 0.92 1.00 1.01 1.02 1.04
0.26 0.27 0.30 0.33 0.37 0.40 0.42 0.42 0.46 0.48 0.49 0.48 0.46 0.47 0.46 0.44 0.45 0.46 0.50 0.51 0.52 0.54 0.57 0.63 0.66 0.64 0.62 0.63 0.64 0.65 0.67 0.67 0.67 0.68 0.74 0.77 0.78 0.80 0.86 0.92 0.94 0.96 0.98
0.29 0.30 0.34 0.37 0.36 0.34 0.36 0.40 0.42 0.44 0.46 0.48 0.50 0.52 0.50 0.49 0.48 0.47 0.49 0.50 0.51 0.53 0.55 0.59 0.64 0.67 0.69 0.72 0.73 0.71 0.71 0.76 0.72 0.70 0.77 0.85 0.84 0.83 0.87 0.90 0.91 0.94 1.03
0.35 0.34 0.36 0.39 0.40 0.38 0.36 0.37 0.41 0.45 0.48 0.52 0.56 0.57 0.56 0.55 0.53 0.52 0.51 0.52 0.53 0.53 0.54 0.56 0.59 0.64 0.71 0.77 0.77 0.73 0.81 0.85 0.80 0.71 0.68 0.77 0.82 0.85 0.91 0.95 1.00 1.08 1.20
0.39 0.39 0.40 0.39 0.39 0.40 0.42 0.43 0.45 0.50 0.54 0.57 0.59 0.60 0.61 0.63 0.62 0.61 0.60 0.58 0.56 0.53 0.52 0.55 0.60 0.61 0.64 0.73 0.80 0.85 0.85 0.78 0.79 0.83 0.75 0.74 0.80 0.87 0.96 1.05 1.10 1.21 1.29